Simultaneous Nadir Overpasses (SNOs) Predictions

Prediction of SNOs between METOP-A and TERRA Satellite Orbit:

Table of predicted SNOs for the next 14.0 days since TLE Epoch: 10/27/2018
Index Date (METOP-A) Time (METOP-A) Lat,Lon (METOP-A) SZA (METOP-A ) Date (TERRA) Time (TERRA) Lat,Lon (TERRA) SZA (TERRA ) Distance(km) Time Diff (sec)
1 10/28/2018 01:50:20 81.43,-158.14 97.84 10/28/2018 01:50:59 81.43,-158.19 97.85 1.13 39
2 10/28/2018 02:40:59 -81.43, 9.72 82.09 10/28/2018 02:40:25 -81.44, 9.74 82.10 0.95 34
3 10/30/2018 21:24:34 81.43, -91.41 98.81 10/30/2018 21:25:10 81.44, -91.53 98.81 1.98 36
4 10/30/2018 22:15:14 -81.43, 76.07 81.17 10/30/2018 22:14:37 -81.43, 76.04 81.19 0.56 37
5 11/02/2018 16:58:50 81.43, -25.11 99.69 11/02/2018 16:59:23 81.43, -25.30 99.68 3.22 33
6 11/02/2018 17:49:30 -81.43, 142.40 80.29 11/02/2018 17:48:50 -81.42, 142.29 80.32 2.03 40
7 11/05/2018 12:33:06 81.43, 41.18 100.53 11/05/2018 12:33:35 81.43, 41.28 100.56 1.77 29
8 11/05/2018 13:23:46 -81.43,-151.28 79.44 11/05/2018 13:23:02 -81.43,-151.10 79.44 2.97 44
9 11/08/2018 08:07:20 81.43, 107.84 101.38 11/08/2018 08:07:46 81.44, 107.82 101.40 0.59 26




NCC Satellite Simultaneous Nadir Overpasses (SNOs) Prediction Service
